ON7SD-5 Weather Reports


time (UTC)temp
C
wind
direction
speed
KPH
gust
KPH
rain 1hr
cm
rain 24hr
cm
rain mn
cm
humidity
%
barometer
mb
20260507123202 18 302 1.6 6.4 0.00 0.00 0.00 47 1015.0
20260507122702 18 302 1.6 6.4 0.00 0.00 0.00 50 1014.9
20260507122202 18 304 3.2 8.0 0.00 0.00 0.00 47 1014.9
20260507121702 18 304 3.2 8.0 0.00 0.00 0.00 49 1014.9
20260507121202 18 309 1.6 11.3 0.00 0.00 0.00 48 1014.9
20260507120702 17 1 1.6 6.4 0.00 0.00 0.00 49 1014.9
20260507120202 17 1 1.6 8.0 0.00 0.00 0.00 51 1014.9
20260507115702 17 1 1.6 6.4 0.00 0.00 0.00 51 1014.9
20260507115202 17 3 1.6 9.7 0.00 0.00 0.00 54 1015.0
20260507114702 17 8 1.6 6.4 0.00 0.00 0.00 53 1014.9
20260507114202 17 8 1.6 4.8 0.00 0.00 0.00 57 1014.9
20260507113702 16 8 1.6 6.4 0.00 0.00 0.00 56 1014.9
20260507113202 16 8 1.6 8.0 0.00 0.00 0.00 57 1015.0
20260507112702 16 8 1.6 4.8 0.00 0.00 0.00 58 1015.0
20260507112202 16 8 0.0 6.4 0.00 0.00 0.00 57 1015.0
20260507111702 16 8 0.0 4.8 0.00 0.00 0.00 58 1015.1
20260507111202 16 8 0.0 4.8 0.00 0.00 0.00 58 1015.1
20260507110702 16 8 0.0 4.8 0.00 0.00 0.00 59 1015.2
20260507110202 16 8 0.0 1.6 0.00 0.00 0.00 58 1015.2
20260507105702 16 8 0.0 1.6 0.00 0.00 0.00 60 1015.2
20260507105202 15 8 0.0 4.8 0.00 0.00 0.00 62 1015.2
20260507104702 15 8 0.0 1.6 0.00 0.00 0.00 62 1015.2
20260507104202 15 8 0.0 3.2 0.00 0.00 0.00 62 1015.3
20260507103702 15 8 0.0 3.2 0.00 0.00 0.00 62 1015.3
20260507103202 15 8 1.6 8.0 0.00 0.00 0.00 62 1015.4
20260507102702 15 8 0.0 6.4 0.00 0.00 0.00 63 1015.4
20260507102202 15 8 0.0 1.6 0.00 0.00 0.00 63 1015.5
20260507101702 15 8 0.0 3.2 0.00 0.00 0.00 66 1015.4
20260507101202 15 8 0.0 0.0 0.00 0.00 0.00 64 1015.4
20260507100702 15 8 0.0 0.0 0.00 0.00 0.00 65 1015.3
20260507100202 14 8 0.0 0.0 0.00 0.00 0.00 66 1015.3
20260507095702 14 8 0.0 0.0 0.00 0.00 0.00 68 1015.3
20260507095202 13 8 0.0 0.0 0.00 0.00 0.00 68 1015.3
20260507094702 13 8 0.0 0.0 0.00 0.00 0.00 69 1015.2
20260507094202 13 8 0.0 0.0 0.00 0.00 0.00 68 1015.3
20260507093702 13 8 0.0 0.0 0.00 0.00 0.00 68 1015.2
20260507093202 13 8 0.0 0.0 0.00 0.00 0.00 70 1015.2
20260507092702 13 8 0.0 0.0 0.00 0.00 0.00 72 1015.2
20260507092202 13 8 0.0 0.0 0.00 0.00 0.00 72 1015.2
20260507091702 13 8 0.0 4.8 0.00 0.00 0.00 72 1015.2
20260507091202 13 8 0.0 0.0 0.00 0.00 0.00 72 1015.2
20260507090702 13 8 0.0 0.0 0.00 0.00 0.00 76 1015.1
20260507090202 12 8 0.0 0.0 0.00 0.00 0.00 75 1015.1
20260507085702 12 8 0.0 0.0 0.00 0.00 0.00 73 1015.1
20260507085202 12 8 0.0 0.0 0.00 0.00 0.00 76 1015.0
20260507084702 12 8 0.0 0.0 0.00 0.00 0.00 77 1015.0
20260507084202 12 8 0.0 0.0 0.00 0.00 0.00 81 1015.0
20260507083702 12 8 0.0 0.0 0.00 0.00 0.00 82 1014.9
20260507083202 11 8 0.0 0.0 0.00 0.00 0.00 83 1014.9
20260507082702 11 8 0.0 0.0 0.00 0.00 0.00 83 1014.9
20260507082202 11 8 0.0 0.0 0.00 0.00 0.00 85 1014.9
20260507081702 11 8 0.0 0.0 0.00 0.00 0.00 86 1014.8
20260507081202 11 8 0.0 0.0 0.00 0.00 0.00 88 1014.8
20260507080702 11 8 0.0 0.0 0.00 0.00 0.00 88 1014.8
20260507080202 11 8 0.0 0.0 0.00 0.00 0.00 88 1014.8
20260507075702 10 8 0.0 0.0 0.00 0.00 0.00 90 1014.7
20260507075202 10 8 0.0 0.0 0.00 0.00 0.00 90 1014.8
20260507074702 10 8 0.0 0.0 0.00 0.00 0.00 90 1014.8
20260507074202 10 8 0.0 0.0 0.00 0.00 0.00 91 1014.8
20260507073702 10 8 0.0 0.0 0.00 0.00 0.00 93 1014.7
20260507073203 10 8 0.0 0.0 0.00 0.00 0.00 95 1014.7
20260507072703 10 8 0.0 0.0 0.00 0.00 0.00 95 1014.7
20260507072203 10 8 0.0 0.0 0.00 0.00 0.00 96 1014.6
20260507071703 10 8 0.0 0.0 0.00 0.00 0.00 96 1014.6
20260507071203 10 8 0.0 0.0 0.00 0.00 0.00 96 1014.5
20260507070703 10 8 0.0 0.0 0.00 0.00 0.00 96 1014.5
20260507070203 9 8 0.0 0.0 0.00 0.00 0.00 96 1014.5
20260507065703 9 8 0.0 0.0 0.00 0.00 0.00 96 1014.5
20260507065203 9 8 0.0 0.0 0.00 0.00 0.00 96 1014.5
20260507064703 9 8 0.0 0.0 0.00 0.00 0.00 96 1014.4
20260507064203 9 8 0.0 0.0 0.00 0.00 0.00 96 1014.4
20260507063703 9 8 0.0 0.0 0.00 0.00 0.00 96 1014.4
20260507063203 9 8 0.0 0.0 0.00 0.00 0.00 96 1014.4
20260507062703 8 8 0.0 0.0 0.00 0.00 0.00 96 1014.3
20260507062203 8 8 0.0 0.0 0.00 0.00 0.00 96 1014.3
20260507061703 8 8 0.0 0.0 0.00 0.00 0.00 96 1014.3
20260507061203 8 8 0.0 0.0 0.00 0.00 0.00 96 1014.2
20260507060703 8 8 0.0 0.0 0.00 0.00 0.00 96 1014.2
20260507060203 8 8 0.0 0.0 0.00 0.00 0.00 96 1014.2
20260507055703 8 8 0.0 0.0 0.00 0.00 0.00 96 1014.1
20260507055203 8 8 0.0 0.0 0.00 0.00 0.00 96 1014.1
20260507054703 8 8 0.0 0.0 0.00 0.00 0.00 96 1014.0
20260507054203 8 8 0.0 0.0 0.00 0.00 0.00 96 1014.1
20260507053703 8 8 0.0 0.0 0.00 0.00 0.00 96 1014.0
20260507053203 8 8 0.0 0.0 0.00 0.00 0.00 96 1013.9
20260507052703 8 8 0.0 0.0 0.00 0.00 0.00 96 1013.9
20260507052203 8 8 0.0 0.0 0.00 0.00 0.00 96 1013.8
20260507051703 8 8 0.0 0.0 0.00 0.00 0.00 96 1013.7
20260507051203 8 8 0.0 0.0 0.00 0.00 0.00 96 1013.7
20260507050703 8 8 0.0 0.0 0.00 0.00 0.00 96 1013.6
20260507050203 8 8 0.0 0.0 0.00 0.00 0.00 96 1013.5
20260507045703 8 8 0.0 0.0 0.00 0.00 0.00 96 1013.5
20260507045203 8 8 0.0 0.0 0.00 0.00 0.00 96 1013.5
20260507044703 8 8 0.0 0.0 0.00 0.00 0.00 96 1013.4
20260507044203 8 8 0.0 0.0 0.00 0.00 0.00 96 1013.5
20260507043703 8 8 0.0 0.0 0.00 0.00 0.00 96 1013.4
20260507043203 8 8 0.0 1.6 0.00 0.00 0.00 96 1013.4
20260507042703 8 8 0.0 0.0 0.00 0.00 0.00 96 1013.5
20260507042203 8 8 0.0 0.0 0.00 0.00 0.00 96 1013.4
20260507041703 8 8 0.0 0.0 0.00 0.00 0.00 96 1013.4
20260507041203 8 8 0.0 0.0 0.00 0.00 0.00 96 1013.3
20260507040703 8 8 0.0 0.0 0.00 0.00 0.00 96 1013.3
20260507040203 7 8 0.0 0.0 0.00 0.00 0.00 96 1013.3
20260507035703 7 8 0.0 0.0 0.00 0.00 0.00 96 1013.2
20260507035203 7 8 0.0 0.0 0.00 0.00 0.00 96 1013.1
20260507034703 7 8 0.0 0.0 0.00 0.00 0.00 96 1013.1
20260507034203 7 8 0.0 0.0 0.00 0.00 0.00 96 1013.1
20260507033703 7 8 0.0 0.0 0.00 0.00 0.00 96 1013.0
20260507033203 7 8 0.0 0.0 0.00 0.00 0.00 96 1013.0
20260507032703 7 8 0.0 0.0 0.00 0.00 0.00 96 1013.0
20260507032203 7 8 0.0 0.0 0.00 0.00 0.00 96 1013.0
20260507031703 7 8 0.0 0.0 0.00 0.00 0.00 96 1012.9
20260507031203 7 8 0.0 0.0 0.00 0.00 0.00 96 1012.9
20260507030703 7 8 0.0 0.0 0.00 0.00 0.00 96 1012.9
20260507030203 7 8 0.0 0.0 0.00 0.00 0.00 96 1012.9
20260507025703 7 8 0.0 0.0 0.00 0.00 0.00 96 1012.9
20260507025203 7 8 0.0 0.0 0.00 0.00 0.00 96 1012.8
20260507024703 7 8 0.0 0.0 0.00 0.00 0.00 96 1012.9
20260507024203 7 8 0.0 0.0 0.00 0.00 0.00 96 1012.8
20260507023703 7 8 0.0 0.0 0.00 0.00 0.00 96 1012.8
20260507023203 7 8 0.0 0.0 0.00 0.00 0.00 96 1012.8
20260507022703 7 8 0.0 0.0 0.00 0.00 0.00 96 1012.9
20260507022203 7 8 0.0 0.0 0.00 0.00 0.00 96 1012.8
20260507021703 7 8 0.0 0.0 0.00 0.00 0.00 96 1012.8
20260507021203 7 8 0.0 0.0 0.00 0.00 0.00 96 1012.7
20260507020703 7 8 0.0 0.0 0.00 0.00 0.00 96 1012.7
20260507020203 7 8 0.0 0.0 0.00 0.00 0.00 96 1012.6
20260507015703 6 8 0.0 0.0 0.00 0.00 0.00 96 1012.6
20260507015203 6 8 0.0 0.0 0.00 0.00 0.00 96 1012.6
20260507014703 6 8 0.0 0.0 0.00 0.00 0.00 96 1012.6
20260507014203 6 8 0.0 0.0 0.00 0.00 0.00 95 1012.6
20260507013703 6 8 0.0 0.0 0.00 0.00 0.00 95 1012.6
20260507013203 6 8 0.0 0.0 0.00 0.00 0.00 95 1012.6
20260507012703 6 8 0.0 0.0 0.00 0.00 0.00 95 1012.5
20260507012203 6 8 0.0 0.0 0.00 0.00 0.00 95 1012.5
20260507011703 6 8 0.0 0.0 0.00 0.00 0.00 95 1012.5
20260507011203 6 8 0.0 0.0 0.00 0.00 0.00 95 1012.5
20260507010703 6 8 0.0 0.0 0.00 0.00 0.00 95 1012.4
20260507010203 6 8 0.0 0.0 0.00 0.00 0.00 95 1012.5
20260507005703 6 8 0.0 0.0 0.00 0.00 0.00 95 1012.5
20260507005203 6 8 0.0 0.0 0.00 0.00 0.00 95 1012.4
20260507004703 6 8 0.0 0.0 0.00 0.00 0.00 95 1012.5
20260507004203 6 8 0.0 0.0 0.00 0.00 0.00 94 1012.5
20260507003703 6 8 0.0 0.0 0.00 0.00 0.00 94 1012.5
20260507003203 6 8 0.0 0.0 0.00 0.00 0.00 94 1012.5
20260507002703 6 8 0.0 0.0 0.00 0.00 0.00 94 1012.5
20260507002203 6 8 0.0 0.0 0.00 0.00 0.00 94 1012.5
20260507001703 6 8 0.0 0.0 0.00 0.00 0.00 94 1012.5
20260507001203 6 8 0.0 0.0 0.00 0.00 0.00 94 1012.5
20260507000703 6 8 0.0 0.0 0.00 0.00 0.00 94 1012.5
20260507000205 7 8 0.0 0.0 0.00 0.00 0.00 94 1012.5
20260506235703 7 8 0.0 0.0 0.00 0.00 0.00 94 1012.4
20260506235203 7 8 0.0 0.0 0.00 0.00 0.00 94 1012.4
20260506234703 7 8 0.0 0.0 0.00 0.00 0.00 94 1012.3
20260506234203 7 8 0.0 0.0 0.00 0.00 0.00 94 1012.3
20260506233703 7 8 0.0 0.0 0.00 0.00 0.00 93 1012.3
20260506233203 7 8 0.0 0.0 0.00 0.00 0.00 93 1012.3
20260506232703 7 8 0.0 0.0 0.00 0.00 0.00 93 1012.3
20260506232203 7 8 0.0 0.0 0.00 0.00 0.00 93 1012.2
20260506231703 7 8 0.0 0.0 0.00 0.00 0.00 93 1012.2
20260506231203 7 8 0.0 0.0 0.00 0.00 0.00 93 1012.2
20260506230703 7 8 0.0 0.0 0.00 0.00 0.00 92 1012.1
20260506230203 7 8 0.0 0.0 0.00 0.00 0.00 92 1012.1
20260506225703 7 8 0.0 0.0 0.00 0.00 0.00 92 1012.1
20260506225203 7 8 0.0 0.0 0.00 0.00 0.00 92 1012.1
20260506224703 7 8 0.0 0.0 0.00 0.00 0.00 91 1012.1
20260506224203 7 8 0.0 0.0 0.00 0.00 0.00 92 1012.0
20260506223703 8 8 0.0 0.0 0.00 0.00 0.00 92 1011.9
20260506223203 8 8 0.0 0.0 0.00 0.00 0.00 90 1011.9
20260506222703 8 8 0.0 0.0 0.00 0.00 0.00 91 1011.9
20260506222203 8 8 0.0 0.0 0.00 0.00 0.00 91 1011.9
20260506221703 8 8 0.0 0.0 0.00 0.00 0.00 90 1011.9
20260506221203 8 8 0.0 0.0 0.00 0.00 0.00 90 1011.8
20260506220703 8 8 0.0 0.0 0.00 0.00 0.00 89 1011.9
20260506220203 8 8 0.0 0.0 0.00 0.00 0.00 89 1011.9
20260506215703 8 8 0.0 0.0 0.00 0.00 0.00 88 1011.9
20260506215203 9 8 0.0 0.0 0.00 0.00 0.00 88 1011.8
20260506214703 9 8 0.0 0.0 0.00 0.00 0.00 88 1011.7
20260506214203 9 8 0.0 0.0 0.00 0.00 0.00 88 1011.8
20260506213703 10 8 0.0 0.0 0.00 0.00 0.00 88 1011.7
20260506213203 10 8 0.0 0.0 0.00 0.00 0.00 88 1011.8
20260506212703 10 8 0.0 0.0 0.00 0.00 0.00 88 1011.7
20260506212203 10 8 0.0 0.0 0.00 0.00 0.00 88 1011.7
20260506211703 10 8 0.0 0.0 0.00 0.00 0.00 87 1011.7
20260506211203 10 8 0.0 0.0 0.00 0.00 0.00 87 1011.6
20260506210703 10 8 0.0 0.0 0.00 0.00 0.00 87 1011.5
20260506210203 10 8 0.0 0.0 0.00 0.00 0.00 86 1011.5
20260506205703 10 8 0.0 0.0 0.00 0.00 0.00 86 1011.5
20260506205204 10 8 0.0 0.0 0.00 0.00 0.00 85 1011.5
20260506204704 10 8 0.0 0.0 0.00 0.00 0.00 85 1011.4
20260506204203 10 8 0.0 0.0 0.00 0.00 0.00 85 1011.4
20260506203703 10 8 0.0 0.0 0.00 0.00 0.00 84 1011.3
20260506203203 11 8 0.0 0.0 0.00 0.00 0.00 84 1011.3
20260506202704 11 8 0.0 0.0 0.00 0.00 0.00 84 1011.3
20260506202203 11 8 0.0 6.4 0.00 0.00 0.00 83 1011.2
20260506201703 11 8 0.0 0.0 0.00 0.00 0.00 83 1011.2
20260506201204 11 8 0.0 0.0 0.00 0.00 0.00 82 1011.1
20260506200704 11 8 0.0 0.0 0.00 0.00 0.00 81 1011.1
20260506200204 11 8 0.0 3.2 0.00 0.00 0.00 80 1011.1
20260506195704 11 8 0.0 4.8 0.00 0.00 0.00 80 1011.0
20260506195204 11 8 1.6 6.4 0.00 0.00 0.00 80 1011.0
20260506194704 11 8 1.6 6.4 0.00 0.00 0.00 79 1010.9
20260506194204 11 8 1.6 9.7 0.00 0.00 0.00 79 1010.9
20260506193704 11 8 1.6 9.7 0.00 0.00 0.00 78 1010.8
20260506193204 11 8 1.6 6.4 0.00 0.00 0.00 78 1010.8
20260506192704 12 8 1.6 11.3 0.00 0.00 0.00 77 1010.7
20260506192204 12 8 1.6 9.7 0.00 0.00 0.00 77 1010.6
20260506191704 12 8 1.6 4.8 0.00 0.00 0.00 76 1010.6
20260506191204 12 8 1.6 6.4 0.00 0.00 0.00 76 1010.6
20260506190704 12 9 3.2 11.3 0.00 0.00 0.00 75 1010.5
20260506190204 12 9 3.2 12.9 0.00 0.00 0.00 74 1010.5
20260506185704 12 4 3.2 9.7 0.00 0.00 0.00 73 1010.5
20260506185204 12 4 1.6 12.9 0.00 0.00 0.00 73 1010.5
20260506184704 12 1 1.6 3.2 0.00 0.00 0.00 72 1010.3
20260506184204 12 1 1.6 11.3 0.00 0.00 0.00 71 1010.4
20260506183704 13 1 1.6 8.0 0.00 0.00 0.00 71 1010.3
20260506183204 13 1 1.6 8.0 0.00 0.00 0.00 71 1010.2
20260506182704 13 2 1.6 9.7 0.00 0.00 0.00 70 1010.2
20260506182204 13 1 1.6 4.8 0.00 0.00 0.00 69 1010.2
20260506181704 13 1 3.2 11.3 0.00 0.00 0.00 68 1010.1
20260506181204 13 1 3.2 14.5 0.00 0.00 0.00 68 1010.0
20260506180704 13 14 1.6 11.3 0.00 0.00 0.00 68 1009.9
20260506180204 13 13 3.2 9.7 0.00 0.00 0.00 70 1009.8
20260506175704 13 13 3.2 11.3 0.00 0.00 0.00 70 1009.8
20260506175204 13 13 3.2 9.7 0.00 0.00 0.00 68 1009.8
20260506174704 13 11 4.8 9.7 0.00 0.00 0.00 69 1009.8
20260506174204 13 8 4.8 14.5 0.00 0.00 0.00 68 1009.6
20260506173704 14 8 3.2 14.5 0.00 0.00 0.00 68 1009.6
20260506173204 14 6 3.2 11.3 0.00 0.00 0.00 67 1009.5
20260506172704 14 7 4.8 19.3 0.00 0.00 0.00 67 1009.4
20260506172204 14 73 4.8 16.1 0.00 0.00 0.00 66 1009.4
20260506171704 14 21 6.4 16.1 0.00 0.00 0.00 65 1009.4
20260506171204 15 20 4.8 16.1 0.00 0.00 0.00 65 1009.3
20260506170704 15 3 4.8 16.1 0.00 0.00 0.00 63 1009.3
20260506170204 15 8 6.4 19.3 0.00 0.00 0.00 62 1009.2
20260506165704 15 5 6.4 16.1 0.00 0.00 0.00 59 1009.2
20260506165204 15 13 6.4 16.1 0.00 0.00 0.00 62 1009.1
20260506164704 15 10 4.8 14.5 0.00 0.00 0.00 60 1009.1
20260506164204 15 14 3.2 9.7 0.00 0.00 0.00 62 1009.1
20260506163704 15 15 4.8 14.5 0.00 0.00 0.00 64 1009.1
20260506163204 15 22 4.8 14.5 0.00 0.00 0.00 64 1009.1
20260506162704 15 7 3.2 12.9 0.00 0.00 0.00 64 1009.1
20260506162204 16 15 0.0 11.3 0.00 0.00 0.00 64 1009.0
20260506161704 15 15 3.2 8.0 0.00 0.00 0.00 62 1009.0
20260506161204 15 0 4.8 14.5 0.00 0.00 0.00 61 1009.0
20260506160704 16 17 4.8 11.3 0.00 0.00 0.00 61 1009.0
20260506160204 16 5 4.8 12.9 0.00 0.00 0.00 62 1009.0
20260506155704 16 13 6.4 19.3 0.00 0.00 0.00 61 1009.0
20260506155204 16 7 4.8 17.7 0.00 0.00 0.00 62 1009.0
20260506154704 16 29 4.8 11.3 0.00 0.00 0.00 62 1008.9
20260506154204 16 2 8.0 17.7 0.00 0.00 0.00 62 1008.9
20260506153704 16 8 4.8 16.1 0.00 0.00 0.00 63 1008.9
20260506153204 16 16 3.2 12.9 0.00 0.00 0.00 62 1009.0
20260506152704 16 24 3.2 11.3 0.00 0.00 0.00 63 1009.0
20260506152204 16 15 3.2 16.1 0.00 0.00 0.00 64 1008.9
20260506151704 15 7 3.2 14.5 0.00 0.00 0.00 65 1009.0
20260506151204 15 23 3.2 16.1 0.00 0.00 0.00 65 1008.9
20260506150704 15 30 4.8 11.3 0.00 0.00 0.00 64 1008.9
20260506150204 15 4 4.8 14.5 0.00 0.00 0.00 64 1009.0
20260506145704 15 8 3.2 12.9 0.00 0.00 0.00 64 1008.9
20260506145204 15 13 1.6 8.0 0.00 0.00 0.00 64 1008.9
20260506144704 15 23 3.2 14.5 0.00 0.00 0.00 64 1008.9
20260506144204 15 1 1.6 9.7 0.00 0.00 0.00 64 1008.9
20260506143704 15 7 3.2 9.7 0.00 0.00 0.00 64 1008.9
20260506143204 15 1 3.2 12.9 0.00 0.00 0.00 65 1008.9
20260506142704 15 12 4.8 9.7 0.00 0.00 0.00 66 1008.9
20260506142204 15 11 4.8 14.5 0.00 0.00 0.00 65 1008.9
20260506141704 15 11 3.2 8.0 0.00 0.00 0.00 66 1008.9
20260506141204 15 12 4.8 14.5 0.00 0.00 0.00 67 1009.0
20260506140704 15 9 4.8 14.5 0.00 0.00 0.00 67 1008.9
20260506140204 15 1 4.8 14.5 0.00 0.00 0.00 66 1008.9
20260506135704 15 4 3.2 12.9 0.00 0.00 0.00 67 1008.9
20260506135204 15 3 1.6 11.3 0.00 0.00 0.00 67 1008.9
20260506134704 15 1 1.6 8.0 0.00 0.00 0.00 69 1009.0
20260506134204 15 1 1.6 9.7 0.00 0.00 0.00 68 1009.0
20260506133704 15 7 3.2 12.9 0.00 0.00 0.00 68 1009.0
20260506133204 15 351 3.2 14.5 0.00 0.00 0.00 68 1009.1
20260506132704 15 340 3.2 9.7 0.00 0.00 0.00 70 1009.1
20260506132204 14 328 3.2 16.1 0.00 0.00 0.00 71 1009.0
20260506131704 14 11 3.2 9.7 0.00 0.00 0.00 70 1009.0
20260506131204 14 11 3.2 14.5 0.00 0.00 0.00 71 1009.0
20260506130704 14 11 3.2 9.7 0.00 0.00 0.00 70 1009.0
20260506130204 14 11 3.2 9.7 0.00 0.00 0.00 71 1008.9
20260506125704 14 11 3.2 11.3 0.00 0.00 0.00 71 1008.9
20260506125204 15 12 3.2 9.7 0.00 0.00 0.00 70 1008.8
20260506124704 14 15 4.8 11.3 0.00 0.00 0.00 71 1008.8
20260506124204 14 12 4.8 14.5 0.00 0.00 0.00 69 1008.8
20260506123704 14 11 1.6 11.3 0.00 0.00 0.00 69 1008.8